Stations météo

réclame
Mon MeteoGroup
Gueret-St Laurent, France (7361): Température de l'air & dewpoint: 14.11.2017 12:00:00 - 20.11.2017 12:00:00 (CET)Gueret-St Laurent, France (7361): Température de l'air 5cm: 14.11.2017 12:00:00 - 20.11.2017 12:00:00 (CET)Gueret-St Laurent, France (7361): Température de l'air -20cm & Température de l'air -100cm: 14.11.2017 12:00:00 - 20.11.2017 12:00:00 (CET)Gueret-St Laurent, France (7361): Vitesse du vent & gusts: 14.11.2017 12:00:00 - 20.11.2017 12:00:00 (CET)Gueret-St Laurent, France (7361): Direction du vent: 14.11.2017 12:00:00 - 20.11.2017 12:00:00 (CET)Gueret-St Laurent, France (7361): reduced air pressure: 14.11.2017 12:00:00 - 20.11.2017 12:00:00 (CET)Gueret-St Laurent, France (7361): visibility: 14.11.2017 12:00:00 - 20.11.2017 12:00:00 (CET)Gueret-St Laurent, France (7361): Ensoleillement: 14.11.2017 12:00:00 - 20.11.2017 12:00:00 (CET)Gueret-St Laurent, France (7361): Quantités de précipitations: 14.11.2017 12:00:00 - 20.11.2017 12:00:00 (CET)
Date & Time tt [°C] td [°C] tt 5cm [°C] tt -20cm [°C] tt -100cm [°C] ff [km/h] ff [knt] fx [km/h] fx [knt] dd ppp [hPa] vv [km] sd [min] rr [mm]
20.11.2017 12:00:00 7,7 6,8 8,9 8,2 12,0 0 0 4 2 N 1026,0 20 0 0,0
20.11.2017 11:00:00 6,6 6,3 7,1 8,2 12,0 3 1 6 3 E 1026,4 17 0 0,0
20.11.2017 10:00:00 5,1 5,0 4,5 8,2 12,0 0 0 6 3 N 1026,1 12 0 0,0
20.11.2017 09:00:00 3,9 3,6 3,1 8,2 12,0 4 2 5 3 SE 1026,7 2,9 0 0,0
20.11.2017 08:00:00 3,4 3,0 2,6 8,1 12,0 0 0 5 3 N 1026,4 0,2 0 0,0
20.11.2017 07:00:00 3,9 3,3 2,4 8,1 12,0 0 0 4 2 N 1025,8 0,1 0 0,0
20.11.2017 06:00:00 5,3 4,9 3,6 8,1 12,0 0 0 3 2 N 1025,4 0,1 0 0,0
20.11.2017 05:00:00 6,2 5,8 5,2 8,1 12,0 0 0 0 0 N 1025,3 0,2 0 0,0
20.11.2017 04:00:00 6,4 6,0 6,2 8,1 12,0 0 0 0 0 N 1025,3 0,4 0 0,0
20.11.2017 03:00:00 6,5 6,1 6,4 8,0 12,1 0 0 0 0 N 1025,6 0,3 0 0,0
20.11.2017 02:00:00 6,6 6,2 6,5 8,0 12,0 0 0 3 1 N 1025,9 1,2 0 0,0
20.11.2017 01:00:00 6,6 6,2 6,5 8,0 12,1 0 0 3 1 N 1026,0 1,3 0 0,2
20.11.2017 00:00:00 6,6 6,2 6,5 8,0 12,1 0 0 4 2 N 1026,3 0,6 0 0,0
19.11.2017 23:00:00 6,7 6,3 6,6 7,9 12,1 0 0 5 3 N 1026,5 1,0 0 0,2
19.11.2017 22:00:00 6,8 6,4 6,6 7,9 12,1 0 0 7 4 N 1026,4 0,8 0 0,0
19.11.2017 21:00:00 6,9 6,5 6,7 7,9 12,1 3 1 7 4 NW 1026,0 0,7 0 0,0
19.11.2017 20:00:00 6,9 6,3 6,6 7,9 12,1 0 0 4 2 N 1025,7 0,9 0 0,0
19.11.2017 19:00:00 6,9 6,2 6,6 7,9 12,1 0 0 4 2 N 1025,5 1,4 0 0,0
19.11.2017 18:00:00 7,0 6,3 6,7 7,8 12,1 3 2 11 6 W 1025,3 3,1 0 0,4
19.11.2017 17:00:00 7,4 6,5 7,1 7,9 12,1 4 2 7 4 N 1024,7 4,0 0 0,0
19.11.2017 16:00:00 7,5 6,0 7,5 7,8 12,1 2 1 13 7 WNW 1024,7 6 0 0,0
19.11.2017 15:00:00 7,8 6,1 8,1 7,9 12,1 4 2 12 6 WNW 1024,4 7 0 0,0
19.11.2017 14:00:00 6,6 4,4 6,8 7,9 12,1 3 1 6 3 ESE 1024,7 15 0 0,0
19.11.2017 13:00:00 5,0 3,0 5,3 7,9 12,1 4 2 8 4 E 1025,3 13 0 0,0
19.11.2017 12:00:00 3,6 2,0 3,7 8,0 12,2 4 2 7 4 E 1026,3 15 0 0,0
19.11.2017 11:00:00 1,8 0,5 1,5 8,0 12,2 5 3 11 6 E 1026,7 15 2 0,0
19.11.2017 10:00:00 0,0 -0,9 -0,9 8,1 12,2 10 5 15 8 ESE 1026,6 13 3 0,0
19.11.2017 09:00:00 -1,7 -2,4 -3,9 8,2 12,2 8 5 14 7 E 1026,8 11 0 0,0
19.11.2017 08:00:00 -2,9 -4,0 -4,7 8,2 12,2 3 1 13 7 SSE 1026,8 13 0 0,0
19.11.2017 07:00:00 -2,2 -3,0 -3,1 8,3 12,2 13 7 19 11 ESE 1025,7 14 0 0,0
19.11.2017 06:00:00 -3,3 -4,0 -5,1 8,4 12,2 3 2 8 5 ESE 1026,2 10 0 0,0
19.11.2017 05:00:00 -2,8 -3,6 -4,5 8,4 12,2 5 3 12 6 SE 1026,5 12 0 0,0
19.11.2017 04:00:00 -2,8 -3,5 -4,8 8,5 12,2 6 3 12 6 ESE 1026,6 11 0 0,0
19.11.2017 03:00:00 -3,1 -3,5 -6,1 8,5 12,2 6 3 9 5 E 1026,8 9 0 0,0
19.11.2017 02:00:00 -3,8 -4,6 -5,8 8,6 12,2 0 0 3 2 N 1027,2 6 0 0,0
19.11.2017 01:00:00 -3,1 -3,9 -5,4 8,6 12,2 0 0 5 3 N 1027,1 4,3 0 0,0
19.11.2017 00:00:00 -2,0 -2,8 -4,4 8,6 12,2 4 2 12 6 E 1026,9 6 0 0,0
18.11.2017 23:00:00 -1,5 -1,8 -4,5 8,6 12,3 8 4 12 6 ESE 1027,0 8 0 0,0
18.11.2017 22:00:00 -1,8 -2,8 -4,1 8,7 12,3 4 2 6 3 E 1027,2 6 0 0,0
18.11.2017 21:00:00 -0,6 -1,4 -3,0 8,6 12,3 4 2 6 4 SE 1027,1 7 0 0,0
18.11.2017 20:00:00 -0,1 -1,8 -2,8 8,6 12,3 0 0 3 2 N 1026,9 9 0 0,0
18.11.2017 19:00:00 1,9 -0,5 -2,0 8,6 12,3 2 1 5 3 E 1026,7 18 0 0,0
18.11.2017 18:00:00 4,0 0,3 0,3 8,6 12,3 4 2 14 7 ENE 1026,3 20 0 0,0
18.11.2017 17:00:00 5,8 1,3 3,8 8,6 12,3 8 4 15 8 NNE 1026,0 20 45 0,0
18.11.2017 16:00:00 7,5 1,3 7,9 8,5 12,3 9 5 18 10 ENE 1025,6 20 54 0,0
18.11.2017 15:00:00 7,2 1,7 7,2 8,5 12,3 6 3 17 9 NE 1026,0 16 11 0,0
18.11.2017 14:00:00 7,1 1,6 8,6 8,5 12,3 9 5 17 9 NE 1026,1 20 0 0,0
18.11.2017 13:00:00 6,7 1,6 8,2 8,5 12,3 12 7 21 11 E 1026,4 20 2 0,0
18.11.2017 12:00:00 6,4 1,9 7,2 8,5 12,3 14 7 20 11 NE 1027,1 20 0 0,0
18.11.2017 11:00:00 6,2 1,9 6,5 8,5 12,3 11 6 18 10 NNE 1027,1 20 0 0,0
18.11.2017 10:00:00 5,7 2,9 5,4 8,5 12,3 5 3 10 5 ENE 1026,7 20 0 0,0
18.11.2017 09:00:00 5,3 2,1 4,6 8,5 12,4 9 5 16 9 ENE 1026,6 20 0 0,0
18.11.2017 08:00:00 4,9 2,9 4,5 8,5 12,4 5 3 14 8 ENE 1026,5 15 0 0,0
18.11.2017 07:00:00 4,8 3,0 4,5 8,5 12,4 4 2 11 6 E 1026,1 14 0 0,0
18.11.2017 06:00:00 4,8 3,1 4,2 8,5 12,4 4 2 15 8 ENE 1026,3 14 0 0,0
18.11.2017 05:00:00 4,4 3,2 4,2 8,5 12,4 4 2 13 7 E 1026,1 13 0 0,0
18.11.2017 04:00:00 4,3 3,1 4,2 8,5 12,4 7 4 17 9 E 1026,2 13 0 0,0
18.11.2017 03:00:00 4,4 3,7 4,3 8,4 12,4 6 3 11 6 NE 1026,4 9 0 0,0
18.11.2017 02:00:00 4,4 3,8 4,4 8,5 12,4 7 4 15 8 NE 1026,3 7 0 0,0
18.11.2017 01:00:00 4,7 4,1 4,6 8,4 12,4 9 5 15 8 NNE 1026,4 4,6 0 0,0
18.11.2017 00:00:00 5,6 4,6 5,1 8,5 12,4 6 4 14 7 NE 1026,4 8 0 0,0
17.11.2017 23:00:00 5,3 4,6 4,6 8,5 12,4 2 1 9 5 SSW 1026,4 6 0 0,0
17.11.2017 22:00:00 4,6 3,4 4,3 8,4 12,4 3 1 5 3 S 1026,6 10 0 0,0
17.11.2017 21:00:00 4,3 3,1 3,3 8,4 12,4 0 0 11 6 N 1026,5 8 0 0,0
17.11.2017 20:00:00 3,8 3,2 -1,7 8,4 12,5 9 5 16 9 E 1026,4 12 0 0,0
17.11.2017 19:00:00 4,5 1,3 -0,6 8,4 12,5 4 2 10 5 ESE 1025,9 20 0 0,0
17.11.2017 18:00:00 5,7 -0,2 0,0 8,3 12,5 4 2 14 7 NE 1025,5 20 0 0,0
17.11.2017 17:00:00 7,8 1,0 4,6 8,3 12,5 9 5 22 12 NNE 1024,7 20 33 0,0
17.11.2017 16:00:00 10,5 1,8 10,3 8,2 12,5 12 6 22 12 NE 1024,1 20 60 0,0
17.11.2017 15:00:00 11,0 1,0 13,1 8,2 12,5 13 7 25 13 ENE 1024,2 20 60 0,0
17.11.2017 14:00:00 11,1 0,8 16,4 8,2 12,5 13 7 23 12 E 1024,2 20 60 0,0
17.11.2017 13:00:00 10,6 0,6 15,1 8,2 12,5 14 8 31 17 E 1025,0 20 60 0,0
17.11.2017 12:00:00 9,7 1,3 13,8 8,2 12,5 10 6 21 11 ENE 1025,3 20 60 0,0
17.11.2017 11:00:00 8,7 1,4 10,9 8,3 12,5 8 4 16 9 E 1025,7 20 60 0,0
17.11.2017 10:00:00 7,0 1,5 2,4 8,3 12,5 0 0 6 3 N 1025,8 19 60 0,0
17.11.2017 09:00:00 2,1 1,7 -0,7 8,3 12,5 3 2 4 2 ESE 1026,5 8 23 0,0
17.11.2017 08:00:00 0,8 -0,1 -0,3 8,3 12,6 0 0 4 2 N 1026,1 8 0 0,0
17.11.2017 07:00:00 1,5 0,6 0,8 8,3 12,5 4 2 8 4 SE 1025,8 13 0 0,0
17.11.2017 06:00:00 1,7 1,0 1,6 8,4 12,6 3 1 4 2 E 1025,8 12 0 0,0
17.11.2017 05:00:00 1,6 1,0 1,4 8,4 12,6 2 1 4 2 SE 1026,0 10 0 0,0
17.11.2017 04:00:00 1,4 0,8 0,8 8,4 12,6 3 2 7 4 ENE 1025,8 8 0 0,0
17.11.2017 03:00:00 0,9 0,3 0,2 8,4 12,6 0 0 6 3 N 1026,2 8 0 0,0
17.11.2017 02:00:00 0,5 -0,1 -0,9 8,4 12,6 0 0 8 4 N 1025,8 8 0 0,0
17.11.2017 01:00:00 0,5 -0,1 -1,3 8,4 12,6 4 2 7 4 E 1026,0 9 0 0,0
17.11.2017 00:00:00 0,7 -0,2 -1,1 8,4 12,6 2 1 6 3 E 1026,2 11 0 0,0
16.11.2017 23:00:00 1,0 -0,2 -0,6 8,4 12,6 5 3 7 4 ESE 1026,0 10 0 0,0
16.11.2017 22:00:00 1,9 0,3 -0,1 8,4 12,6 2 1 5 3 S 1025,9 19 0 0,0
16.11.2017 21:00:00 2,5 0,4 -0,2 8,4 12,6 3 1 5 3 ESE 1025,5 20 0 0,0
16.11.2017 20:00:00 4,1 0,2 1,5 8,4 12,6 3 1 8 4 SE 1025,2 20 0 0,0
16.11.2017 19:00:00 4,7 1,0 2,1 8,4 12,6 5 3 9 5 ESE 1024,9 20 0 0,0
16.11.2017 18:00:00 6,5 0,6 3,3 8,3 12,7 5 3 10 5 E 1024,0 20 0 0,0
16.11.2017 17:00:00 8,0 0,0 5,0 8,3 12,7 7 4 10 5 NE 1023,7 20 4 0,0
16.11.2017 16:00:00 10,3 1,4 9,3 8,3 12,6 5 3 12 7 NNE 1023,1 20 36 0,0
16.11.2017 15:00:00 11,8 0,2 15,6 8,3 12,6 7 4 13 7 E 1022,5 20 60 0,0
16.11.2017 14:00:00 10,9 0,0 14,5 8,4 12,7 0 0 10 5 N 1022,7 20 54 0,0
16.11.2017 13:00:00 8,8 1,2 10,1 8,4 12,7 3 2 8 4 E 1023,2 18 26 0,0
16.11.2017 12:00:00 6,7 1,4 9,3 8,5 12,7 3 1 6 3 E 1024,0 20 54 0,0
16.11.2017 11:00:00 3,9 0,1 4,6 8,5 12,7 5 3 9 5 ESE 1024,8 20 60 0,0
16.11.2017 10:00:00 0,4 -1,4 -2,9 8,6 12,7 5 3 12 6 E 1025,2 19 53 0,0
16.11.2017 09:00:00 -2,8 -4,2 -4,2 8,6 12,7 4 2 12 7 E 1025,4 18 32 0,0
16.11.2017 08:00:00 -3,2 -4,3 -5,4 8,7 12,7 9 5 13 7 ESE 1025,2 20 0 0,0
16.11.2017 07:00:00 -2,9 -4,0 -4,3 8,8 12,7 9 5 13 7 ESE 1024,5 20 0 0,0
16.11.2017 06:00:00 -2,5 -3,5 -4,3 8,8 12,7 8 5 15 8 ESE 1024,3 20 0 0,0
16.11.2017 05:00:00 -2,6 -3,4 -4,9 8,9 12,8 10 5 15 8 ESE 1024,2 19 0 0,0
16.11.2017 04:00:00 -3,2 -4,0 -5,4 8,9 12,7 8 4 10 5 E 1024,4 15 0 0,0
16.11.2017 03:00:00 -2,6 -3,2 -4,9 9,0 12,8 5 3 11 6 ESE 1024,7 15 0 0,0
16.11.2017 02:00:00 -2,9 -3,3 -5,6 9,0 12,8 6 4 11 6 E 1024,8 12 0 0,0
16.11.2017 01:00:00 -3,6 -4,4 -5,3 9,1 12,8 6 3 10 6 SE 1025,2 12 0 0,0
16.11.2017 00:00:00 -3,2 -4,0 -5,0 9,1 12,8 4 2 8 4 E 1025,4 11 0 0,0
15.11.2017 23:00:00 -3,0 -3,8 -4,7 9,2 12,8 5 3 7 4 E 1025,1 8 0 0,0
15.11.2017 22:00:00 -2,5 -3,5 -4,7 9,2 12,8 3 1 8 4 SE 1025,5 13 0 0,0
15.11.2017 21:00:00 -1,7 -3,0 -4,2 9,2 12,8 0 0 4 2 N 1025,2 16 0 0,0
15.11.2017 20:00:00 -0,8 -2,8 -3,2 9,2 12,8 4 2 5 3 ESE 1025,5 18 0 0,0
15.11.2017 19:00:00 1,1 -2,7 -2,5 9,1 12,8 4 2 5 3 ENE 1025,1 20 0 0,0
15.11.2017 18:00:00 4,1 -2,1 -1,4 9,2 12,8 5 3 10 6 ENE 1024,3 20 0 0,0
15.11.2017 17:00:00 7,0 -2,5 3,7 9,1 12,8 6 4 16 9 E 1023,6 20 36 0,0
15.11.2017 16:00:00 8,8 -1,6 8,6 9,1 12,8 10 5 22 12 ENE 1023,5 20 60 0,0
15.11.2017 15:00:00 8,9 -0,7 8,6 9,1 12,8 7 4 20 11 ENE 1023,5 20 49 0,0
15.11.2017 14:00:00 7,9 -0,6 10,2 9,1 12,8 13 7 22 12 E 1024,0 20 37 0,0
15.11.2017 13:00:00 7,3 -0,2 7,9 9,1 12,8 9 5 22 12 E 1024,6 20 0 0,0
15.11.2017 12:00:00 6,4 -0,6 8,1 9,2 12,8 13 7 25 13 ESE 1025,4 20 42 0,0
15.11.2017 11:00:00 6,4 -0,4 7,5 9,2 12,8 11 6 16 9 E 1026,2 20 60 0,0
15.11.2017 10:00:00 3,8 0,8 1,7 9,2 12,8 7 4 14 8 SE 1026,8 15 60 0,0
15.11.2017 09:00:00 1,3 0,4 -1,6 9,3 12,8 4 2 10 5 SE 1026,9 9 38 0,0
15.11.2017 08:00:00 0,3 -0,7 -1,6 9,3 12,8 0 0 5 3 N 1027,0 4,5 0 0,0
15.11.2017 07:00:00 1,3 0,3 -0,2 9,3 12,8 6 3 11 6 ESE 1026,4 9 0 0,0
15.11.2017 06:00:00 1,8 0,6 0,2 9,4 12,9 4 2 14 7 E 1026,2 10 0 0,0
15.11.2017 05:00:00 2,1 0,9 1,3 9,4 12,9 7 4 14 7 E 1026,3 10 0 0,0
15.11.2017 04:00:00 2,3 1,0 1,3 9,4 12,9 6 4 15 8 ENE 1026,4 12 0 0,0
15.11.2017 03:00:00 2,4 0,9 1,6 9,5 12,9 9 5 19 11 E 1026,9 13 0 0,0
15.11.2017 02:00:00 2,3 0,8 1,5 9,5 12,9 10 5 17 9 E 1027,0 14 0 0,0
15.11.2017 01:00:00 2,3 1,0 0,5 9,5 12,9 6 3 15 8 ENE 1027,3 13 0 0,0
15.11.2017 00:00:00 2,0 0,7 0,4 9,6 12,9 4 2 16 9 E 1027,4 13 0 0,0
14.11.2017 23:00:00 2,5 1,0 1,0 9,5 12,9 9 5 18 10 E 1027,7 14 0 0,0
14.11.2017 22:00:00 3,0 2,0 0,6 9,6 12,9 15 8 23 12 NE 1027,8 15 0 0,0
14.11.2017 21:00:00 1,8 1,1 -0,5 9,6 12,9 4 2 5 3 SE 1028,2 12 0 0,0
14.11.2017 20:00:00 0,9 0,0 -2,1 9,6 12,9 3 2 5 3 NE 1028,5 8 0 0,0
14.11.2017 19:00:00 1,9 0,0 -1,0 9,6 12,9 4 2 11 6 NE 1028,4 16 0 0,0
14.11.2017 18:00:00 3,8 0,8 3,0 9,5 12,9 8 5 19 11 N 1027,6 19 0 0,0
14.11.2017 17:00:00 4,2 1,1 3,4 9,5 12,9 11 6 18 10 N 1027,3 20 37 0,0
14.11.2017 16:00:00 5,6 1,3 5,0 9,5 12,9 11 6 24 13 N 1026,8 20 43 0,0
14.11.2017 15:00:00 6,7 1,8 7,2 9,5 12,9 12 6 25 13 N 1026,7 20 50 0,0
14.11.2017 14:00:00 7,2 2,1 12,0 9,5 12,9 11 6 21 12 N 1026,7 20 60 0,0
14.11.2017 13:00:00 6,7 2,4 8,4 9,5 12,9 11 6 21 12 NE 1027,3 20 49 0,0
14.11.2017 12:00:00 5,5 2,1 5,3 9,6 12,9 13 7 22 12 N 1027,5 20 27 0,0

tt = Température de l'air
td = dewpoint
tt 5cm = Température de l'air 5cm
tt -20cm = Température de l'air -20cm
tt -100cm = Température de l'air -100cm
ff = Vitesse du vent
fx = gusts
dd = Direction du vent
ppp = reduced air pressure
vv = visibility
sd = Ensoleillement
rr = Quantités de précipitations

stations d'obs. à proximité